[[{"header":{"parameterUnit":"m.s-1","parameterCategory":1,"la1":30.2991,"la2":30.254,"lo1":-89.0895,"lo2":-89.0444,"dy":0.0017,"dx":0.0017,"nx":28,"ny":28,"refTime":"2023-08-12T09:00:00:Z","depth":0,"parameterNumber":2,"parameterNumberName":"U-component_of_WINDS"},"data":[0,0,0,0,0,0,0,0,0,0,0,0,0,0,0,0,0,0,0,0,0,0,0,0,0,0,0,0,0,0,0,0,0,0,0,0,0,0,0,0,0,0,0,0,0,0,0,0,0,0,0,0,0,0,0,0,0,0,2.0771,2.0773,0,2.0933,2.0935,2.0937,2.0975,2.0974,2.0973,2.0972,2.1143,2.1148,2.1154,0,0,0,0,0,0,0,0,0,0,0,0,0,2.0499,2.0503,2.0771,2.0773,2.0775,2.0933,2.0935,2.0937,2.0976,2.0974,2.0973,2.0972,2.1141,2.1148,2.1154,0,0,0,0,0,0,0,0,0,0,0,0,0,2.0634,2.0505,2.077,2.0813,2.0818,2.0932,2.0935,2.0938,2.0976,2.0974,2.0973,2.0971,2.1139,2.1147,2.1155,2.124,0,0,2.1181,2.1184,0,0,0,0,0,0,0,0,2.0627,2.0644,2.0805,2.081,2.0816,2.0932,2.0902,2.1039,2.0976,2.0916,2.0972,2.097,2.1074,2.1088,2.1122,2.1248,2.1255,2.1181,2.1186,2.119,2.1192,0,0,0,0,0,0,0,2.0617,2.0638,2.0835,2.0807,2.0814,2.0825,2.0843,2.0928,2.1003,2.0921,2.0924,2.0943,2.1077,2.1114,2.1126,2.1258,2.1181,2.1189,2.1194,2.1197,2.1462,2.1464,0,0,0,0,0,0,2.06,2.063,2.083,2.084,2.0715,2.0832,2.0851,2.0897,2.1002,2.1016,2.0944,2.0944,2.11,2.1117,2.1133,2.1239,2.119,2.1198,2.1203,2.146,2.1463,2.1465,0,0,0,0,0,0,2.0594,2.0617,2.0823,2.0736,2.0763,2.0838,2.0889,2.0901,2.0937,2.1019,2.1033,2.0967,2.11,2.1121,2.1213,2.1245,2.1202,2.1209,2.1458,2.1461,2.1464,2.1452,0,0,0,0,0,0,2.0586,2.0615,2.0647,2.0736,2.0767,2.0899,2.0891,2.0905,2.0951,2.0953,2.1045,2.1058,2.11,2.12,2.1221,2.1256,2.1216,2.1455,2.1459,2.1463,2.145,2.1454,2.1458,0,0,0,0,0,2.0576,2.0638,2.0648,2.0672,2.0808,2.0901,2.0919,2.0965,2.0954,2.0987,2.104,2.1056,2.1239,2.1209,2.1233,2.1271,2.1454,2.1458,2.1463,2.1448,2.1454,2.1458,0,0,0,0,0,0,2.0551,2.065,2.0663,2.0755,2.0819,2.0907,2.095,2.0969,2.1039,2.1037,2.1092,2.1113,2.1201,2.1246,2.1211,2.1359,2.1346,2.1356,2.1327,2.1333,2.1337,2.1324,2.1223,0,0,0,0,0,2.0556,2.0622,2.0705,2.0779,2.081,2.0875,2.0917,2.0946,2.1016,2.1044,2.1103,2.1171,2.1244,2.1291,2.1363,2.1457,2.1478,2.1495,2.1499,2.1502,2.151,2.1564,2.1573,2.148,2.148,2.148,0,0,2.0567,2.063,2.0668,2.0775,2.0828,2.0897,2.0897,2.0969,2.1021,2.1055,2.1145,2.1191,2.1271,2.1364,2.1409,2.1404,2.154,2.1508,2.151,2.1516,2.1569,2.1578,2.1586,2.1483,2.1483,2.1482,0,0,2.0623,2.0676,2.0743,2.0797,2.0877,2.092,2.0936,2.1022,2.1053,2.1144,2.1172,2.1235,2.1359,2.1415,2.146,2.1537,2.1555,2.156,2.1581,2.1633,2.164,2.1647,2.1675,2.1684,2.1567,2.1567,2.1567,0,2.0627,2.0729,2.0776,2.0846,2.0893,2.0926,2.0996,2.1046,2.1146,2.1178,2.1172,2.1329,2.1385,2.1492,2.1511,2.1546,2.1567,2.1549,2.1635,2.1642,2.1649,2.1677,2.1687,2.1567,2.1567,2.1567,2.1567,0,2.0731,2.0801,2.0846,2.0941,2.0993,2.1063,2.1121,2.1169,2.1194,2.1238,2.1331,2.14,2.1486,2.1514,2.154,2.1626,2.162,2.1624,2.1612,2.1657,2.1684,2.1695,2.1567,2.1567,2.1567,2.1567,0,0,2.0773,2.0894,2.0909,2.0953,2.1045,2.1101,2.1173,2.1257,2.1297,2.1365,2.1428,2.1532,2.1536,2.1587,2.162,2.1665,2.1723,2.1664,2.1667,2.1672,2.1822,2.1819,2.183,2.1736,2.1738,2.174,2.1816,0,2.084,2.0968,2.1013,2.1119,2.1186,2.1219,2.1282,2.1346,2.1389,2.1453,2.1502,2.1575,2.1575,2.1606,2.1652,2.1706,2.1754,2.1701,2.1795,2.1798,2.1773,2.1844,2.184,2.1909,2.1826,2.1828,2.183,0,2.0934,2.1003,2.1115,2.12,2.123,2.1285,2.1365,2.1426,2.15,2.1529,2.1585,2.1615,2.1693,2.1677,2.1786,2.1749,2.179,2.1823,2.1826,2.1837,2.1816,2.1856,2.1932,2.1942,2.1846,2.1845,2.1844,0,2.0954,2.1075,2.1158,2.1195,2.1295,2.1334,2.1378,2.145,2.1497,2.1568,2.16,2.168,2.1723,2.1785,2.1836,2.1819,2.1941,2.1928,2.1967,2.1966,2.1991,2.1988,2.2074,2.2018,2.2018,2.2018,2.2017,0,2.1023,2.1091,2.1169,2.122,2.1297,2.1349,2.1424,2.1471,2.1535,2.1596,2.1631,2.1688,2.1752,2.1819,2.186,2.1944,2.1964,2.199,2.2,2.1986,2.1983,2.2014,2.201,2.202,2.202,2.2019,2.2019,0,2.1058,2.1113,2.1206,2.1293,2.1317,2.137,2.1446,2.1498,2.1543,2.1621,2.1642,2.1713,2.1793,2.185,2.1954,2.1981,2.2072,2.2082,2.2046,2.2051,2.2087,2.2083,2.2195,2.2213,2.2145,2.2145,2.2146,0,2.1098,2.1151,2.1244,2.1287,2.1331,2.14,2.1449,2.1503,2.1552,2.1641,2.1682,2.1764,2.1833,2.1959,2.2021,2.2101,2.2113,2.2147,2.2125,2.211,2.2113,2.2109,2.2115,2.2149,2.215,2.215,2.2151,0,2.1164,2.1189,2.1256,2.1334,2.1391,2.1455,2.152,2.1554,2.162,2.1674,2.1755,2.1808,2.1913,2.1995,2.208,2.2128,2.215,2.2157,2.217,2.2157,2.2134,2.2147,2.2055,2.2154,2.2154,2.2154,2.2153,2.2153,2.1203,2.1251,2.1324,2.14,2.1454,2.1514,2.1567,2.1618,2.1687,2.1776,2.1804,2.1889,2.1963,2.208,2.2128,2.2196,2.2195,2.2214,2.2219,2.2223,2.2222,2.2123,2.2212,2.2212,2.2212,2.2212,2.2212,0,2.127,2.1319,2.1387,2.1476,2.1536,2.1552,2.1624,2.1673,2.1747,2.1814,2.188,2.1974,2.2054,2.2122,2.2205,2.2246,2.2259,2.2266,2.2263,2.2274,2.2219,2.2199,2.2254,2.2254,2.2254,2.2254,2.2254,2.2254,2.1311,2.1395,2.1428,2.1539,2.1589,2.1671,2.1711,2.1767,2.1821,2.1924,2.1989,2.2033,2.2101,2.2189,2.2263,2.2282,2.231,2.2315,2.2336,2.2283,2.2278,2.2273,2.2254,2.2321,2.2321,2.2385,2.2386,2.2386]},{"header":{"parameterUnit":"m.s-1","parameterCategory":1,"la1":30.2991,"la2":30.254,"lo1":-89.0895,"lo2":-89.0444,"dy":0.0017,"dx":0.0017,"nx":28,"ny":28,"refTime":"2023-08-12T09:00:00:Z","depth":0,"parameterNumber":3,"parameterNumberName":"V-component_of_WINDS"},"data":[0,0,0,0,0,0,0,0,0,0,0,0,0,0,0,0,0,0,0,0,0,0,0,0,0,0,0,0,0,0,0,0,0,0,0,0,0,0,0,0,0,0,0,0,0,0,0,0,0,0,0,0,0,0,0,0,0,0,4.0464,4.0464,0,4.049,4.049,4.0491,4.0476,4.0476,4.0475,4.0474,4.0498,4.0499,4.0501,0,0,0,0,0,0,0,0,0,0,0,0,0,4.0397,4.0398,4.0464,4.0464,4.0465,4.049,4.049,4.0491,4.0477,4.0476,4.0475,4.0474,4.0498,4.0499,4.0501,0,0,0,0,0,0,0,0,0,0,0,0,0,4.0425,4.0398,4.0464,4.0461,4.0461,4.049,4.049,4.0491,4.0477,4.0476,4.0475,4.0474,4.0497,4.0499,4.0501,4.0534,0,0,4.0507,4.0508,0,0,0,0,0,0,0,0,4.0423,4.0427,4.0461,4.0461,4.0461,4.0479,4.0475,4.0505,4.0477,4.0471,4.0474,4.0473,4.0492,4.0495,4.0502,4.0535,4.0536,4.0507,4.0508,4.0509,4.0509,0,0,0,0,0,0,0,4.0421,4.0426,4.0474,4.0461,4.0462,4.0456,4.0459,4.0481,4.0487,4.0471,4.047,4.0474,4.0492,4.05,4.0502,4.0536,4.0507,4.0509,4.051,4.0511,4.0592,4.0593,0,0,0,0,0,0,4.042,4.0424,4.0473,4.0475,4.0439,4.0458,4.0461,4.0474,4.0487,4.0488,4.0474,4.0473,4.0497,4.05,4.0503,4.0539,4.0509,4.0511,4.0512,4.0591,4.0592,4.0593,0,0,0,0,0,0,4.0419,4.0424,4.0472,4.0449,4.0455,4.0461,4.0475,4.0475,4.0483,4.0489,4.049,4.0482,4.0496,4.05,4.0525,4.0539,4.0512,4.0513,4.059,4.0591,4.0593,4.0613,0,0,0,0,0,0,4.0417,4.0424,4.0438,4.045,4.0456,4.0496,4.0476,4.0477,4.0487,4.0485,4.0496,4.0497,4.0496,4.0522,4.0527,4.0542,4.0515,4.0589,4.0591,4.0592,4.0611,4.0615,4.0618,0,0,0,0,0,4.0414,4.0443,4.0439,4.0445,4.0475,4.0497,4.0501,4.05,4.0488,4.0501,4.0504,4.0496,4.0537,4.0525,4.053,4.0546,4.0588,4.059,4.0592,4.0609,4.0614,4.0618,0,0,0,0,0,0,4.0434,4.0445,4.044,4.0475,4.0485,4.0495,4.0511,4.0506,4.0519,4.0517,4.0514,4.0516,4.0541,4.0546,4.0532,4.0575,4.056,4.0564,4.0571,4.0576,4.058,4.0577,4.0516,0,0,0,0,0,4.0442,4.0461,4.0469,4.0498,4.0503,4.0506,4.0516,4.0514,4.0525,4.0529,4.0534,4.0543,4.0557,4.0567,4.0581,4.0611,4.0612,4.0624,4.0628,4.0631,4.0633,4.0645,4.065,4.0601,4.0601,4.0601,0,0,4.0459,4.0467,4.048,4.0502,4.051,4.0527,4.051,4.053,4.0542,4.0532,4.0555,4.0559,4.0568,4.0595,4.0607,4.0599,4.0647,4.0634,4.0636,4.0637,4.0648,4.0653,4.0657,4.0602,4.0602,4.0602,0,0,4.0498,4.0508,4.0531,4.0539,4.0551,4.0552,4.0557,4.0567,4.0569,4.0592,4.0583,4.0597,4.0623,4.0629,4.0635,4.0672,4.0664,4.0677,4.0695,4.0707,4.0711,4.0714,4.0724,4.0729,4.068,4.068,4.068,0,4.0518,4.0545,4.0544,4.0563,4.0571,4.0562,4.0584,4.0591,4.0606,4.0611,4.0603,4.0632,4.0639,4.0665,4.0673,4.068,4.0683,4.0675,4.0711,4.0714,4.0717,4.0727,4.0731,4.0681,4.0681,4.0681,4.0681,0,4.0566,4.0585,4.0602,4.0616,4.0626,4.0647,4.0646,4.0656,4.0652,4.0654,4.0675,4.0682,4.0695,4.0701,4.0698,4.0725,4.072,4.0712,4.0696,4.0723,4.0732,4.0736,4.0683,4.0682,4.0682,4.0682,0,0,4.062,4.0631,4.0637,4.0641,4.0652,4.0665,4.0683,4.0696,4.0703,4.0713,4.0726,4.0747,4.0738,4.0745,4.0742,4.0753,4.0777,4.0742,4.0742,4.0746,4.0803,4.0808,4.0813,4.0772,4.0773,4.0774,4.0801,0,4.0658,4.069,4.0688,4.0718,4.0732,4.0722,4.0737,4.0744,4.0744,4.0755,4.0756,4.0769,4.0758,4.0761,4.0772,4.0772,4.0788,4.077,4.0782,4.0782,4.0778,4.0818,4.0824,4.085,4.0805,4.0806,4.0806,0,4.0707,4.0717,4.0748,4.0752,4.0758,4.0772,4.0781,4.0793,4.0799,4.0798,4.0805,4.0799,4.0814,4.0799,4.0818,4.0806,4.0811,4.0811,4.0812,4.0812,4.0795,4.0816,4.0859,4.0862,4.0812,4.0812,4.0811,0,4.0738,4.076,4.078,4.0785,4.0791,4.08,4.0803,4.0808,4.0815,4.0823,4.0826,4.0836,4.0841,4.0847,4.0843,4.0833,4.0862,4.0848,4.086,4.086,4.0865,4.0865,4.0907,4.0872,4.0872,4.0872,4.0871,0,4.0779,4.0798,4.0794,4.0806,4.0825,4.0821,4.084,4.0841,4.0845,4.0856,4.0848,4.0858,4.0853,4.0861,4.0858,4.0873,4.0876,4.0874,4.0872,4.0874,4.0873,4.0875,4.0873,4.0873,4.0872,4.0872,4.0872,0,4.0818,4.0817,4.0837,4.0841,4.0842,4.0855,4.0857,4.0867,4.0867,4.088,4.0883,4.0881,4.089,4.0887,4.0898,4.0896,4.0913,4.0911,4.0911,4.091,4.0921,4.0919,4.0964,4.0969,4.0933,4.0933,4.0933,0,4.0843,4.0856,4.086,4.0867,4.087,4.0881,4.0887,4.0883,4.0889,4.0894,4.0903,4.0912,4.0919,4.0934,4.0932,4.0939,4.0936,4.0951,4.0937,4.0936,4.0933,4.0931,4.0931,4.0953,4.0954,4.0954,4.0954,0,4.0886,4.0884,4.0893,4.0901,4.0909,4.0915,4.092,4.0926,4.0921,4.0928,4.0937,4.0943,4.0952,4.096,4.0965,4.0966,4.0959,4.0959,4.0961,4.0962,4.0961,4.0959,4.0916,4.0958,4.0957,4.0957,4.0957,4.0957,4.0917,4.0927,4.093,4.094,4.0943,4.0947,4.0956,4.0955,4.0963,4.0971,4.0967,4.0977,4.0979,4.0986,4.0988,4.0994,4.0988,4.0993,4.0994,4.0994,4.0995,4.0961,4.0996,4.0995,4.0995,4.0995,4.0995,0,4.0957,4.0958,4.0967,4.0974,4.098,4.0973,4.0977,4.0983,4.0992,4.0995,4.1001,4.101,4.1017,4.1015,4.1021,4.1026,4.1022,4.1027,4.1026,4.1026,4.1001,4.0997,4.103,4.103,4.103,4.103,4.103,4.103,4.0979,4.0994,4.0992,4.1008,4.1008,4.1018,4.1021,4.1024,4.1026,4.1036,4.1041,4.104,4.104,4.1045,4.105,4.1049,4.1051,4.1057,4.1054,4.1031,4.1028,4.1024,4.102,4.1058,4.1058,4.1078,4.1078,4.1078]}]]